ZHONGXING-3A

Last updated on Thu Dec 11 2025 00:02:51 GMT+0000 (Coordinated Universal Time)

1 60179U 24122A 25344.70322721 -.00000308 00000+0 00000+0 0 9996 2 60179 0.0383 100.0379 0001300 170.5096 163.8665 1.00267677 5412
UTC large
Height (km)
Speed (km/s)
/
Latitude / Longitude
Inclination (degrees)
Orbital Period (minutes)
Azimuth
Elevation
Range (km)
Doppler Factor

Next 0 passes for location: London (51.5072 / 0.1276)

Sorry there are no passes over London.